Regional Weather Roundup
Issued by NWS Nashville, TN

Home | Current Version | Previous Version | Text Only | Print | Product List | Glossary On
Versions: 1 2 3 4 5 6 7 8 9 10 11 12 13 14 15 16 17 18 19 20 21 22 23 24 25 26 27 28 29 30 31 32 33 34 35 36 37 38 39 40 41 42 43 44 45 46 47 48 49 50
000
ASUS44 KOHX 171710
RWROHX
MIDDLE TENNESSEE HOURLY WEATHER ROUNDUP
NATIONAL WEATHER SERVICE NASHVILLE TN
1200 PM CDT THU AUG 17 2017

NOTE: "FAIR" INDICATES FEW OR NO CLOUDS BELOW 12,000 FEET WITH
NO SIGNIFICANT WEATHER AND/OR OBSTRUCTIONS TO VISIBILITY.

* THESE REPORTS ARE NOT UNDER NWS QUALITY CONTROL AND MAY NOT
  REPORT WEATHER SUCH AS PRECIPITATION AND FOG.


TNZ005>011-023>034-057-059-062>066-078-080-171800
...NORTHERN MIDDLE TENNESSEE...

CITY           SKY/WX    TMP DP  RH WIND       PRES   REMARKS
CLARKSVILLE    CLOUDY    81  73  76 SW9       29.99F
CROSSVILLE     MOSUNNY   82  69  64 SW10      30.11F
GALLATIN       CLOUDY    88  73  62 SW12G17   30.04S HX  96
DICKSON        MOSUNNY   81  73  76 SW12      30.03F
LEBANON        MOSUNNY   87  73  62 SW14      30.01F HX  94
NASHVILLE      CLOUDY    85  72  65 SW13      30.03F HX  91
PORTLAND       MOSUNNY   84  73  70 SW12G18   30.01F HX  91
SMYRNA         PTSUNNY   86  73  65 SW12G17   30.03F HX  93
SPARTA         PTSUNNY   86  73  66 SW9G20    30.05F HX  93
SPRINGFIELD    CLOUDY    82  73  74 SW10G21   30.00S
WEST NASHVILLE CLOUDY    84  73  70 SW10G16   30.00F HX  91
$$
TNZ056-058-060-061-075>077-079-093>097-171800
...SOUTHERN MIDDLE TENNESSEE...

CITY           SKY/WX    TMP DP  RH WIND       PRES   REMARKS
COLUMBIA       PTSUNNY   84  75  74 W8G15     30.03S HX  92
FAYETTEVILLE   PTSUNNY   84  73  70 W8G15     30.08F HX  91
MCMINNVILLE    MOSUNNY   84  75  74 SW9       30.08S HX  92
MURFREESBORO   MOSUNNY   87  72  61 S13       30.03F HX  93
PULASKI        PTSUNNY   84  75  74 SW8       30.06F HX  92
SHELBYVILLE    PTSUNNY   84  73  70 SW14      30.06F HX  91
TULLAHOMA      CLOUDY    84  70  61 W8        30.10S
WINCHESTER     MOSUNNY   84  72  65 W9        30.09S
$$


...KEY TO REMARKS...
VSB - VISIBILITY IN MILES
WCI - WIND CHILL INDEX
HX  - HEAT INDEX




USA.gov is the U.S. government's official web portal to all federal, state and local government web resources and services.